FLYING LAPTOP (42831 NORAD) Tracking and Keplerian Element Data

This shows tracking and keplerian element data for the satellite.

Feedback or suggestion? Click here.




ElementValue
Catalog42831
NameFLYING LAPTOP
Epoch Orbit14773
Epoch Day91.88904597
Epoch Year2020
RAAN337.3816
Inclination97.5324
Eccentricity0.0013978
Argument of Perigee177.5419
Mean Anonmoly182.5871
Mean Motion14.91102153
Decay Rate2.46E-06
L11 42831U 17042G 20091.88904597 .00000246 00000-0 30096-4 0 9998
L22 42831 97.5324 337.3816 0013978 177.5419 182.5871 14.91102153147734

Live tracking and technical data element details for FLYING LAPTOP (NORAD 42831). FLYING LAPTOP can be tracked NOW for your location showing map with azimuth and elevation plus other details from your city location.

Track the satellite on the map from your city or location and see movement details for azimuth, elevation, latitude, longitude, range, height, and movement on the map or in text.







IsCatalogInMostPopularTable: catalog: 42831, numindb: 381
Update: records affected: 1



GetName: 42831 FLYING LAPTOP

Hit Count: updated at: Fri, 03 Apr 2020 07:44:20 GMT